EW9592 Weather Reports


Display with metric or nautical units.
time (UTC)temp
F
wind
direction
speed
MPH
gust
MPH
rain 1hr
in
rain 24hr
in
rain mn
in
humidity
%
barometer
mb
20260509100028 55 143 0.0 0.0 0.00 0.00 0.00 89 1008.2
20260509094523 55 143 0.0 0.0 0.00 0.00 0.00 88 1008.1
20260509093023 55 143 0.0 0.0 0.00 0.00 0.00 88 1008.2
20260509091522 54 143 0.0 0.0 0.00 0.00 0.00 87 1008.6
20260509090033 54 143 0.0 0.0 0.00 0.00 0.00 87 1008.7
20260509084519 54 143 0.0 0.0 0.00 0.00 0.00 87 1008.4
20260509083018 54 143 0.0 0.0 0.00 0.00 0.00 86 1008.4
20260509081518 54 143 0.0 0.0 0.00 0.00 0.00 86 1008.5
20260509080017 55 143 0.0 0.0 0.00 0.00 0.00 85 1008.4
20260509074515 55 143 0.0 0.0 0.00 0.00 0.00 84 1008.5
20260509073028 55 143 0.0 0.0 0.00 0.00 0.00 83 1008.5
20260509071512 56 143 0.0 0.0 0.00 0.00 0.00 82 1008.4
20260509070010 56 143 0.0 0.0 0.00 0.00 0.00 81 1008.7
20260509064506 56 143 0.0 0.0 0.00 0.00 0.00 81 1009.2
20260509063015 56 143 0.0 0.0 0.00 0.00 0.00 80 1009.1
20260509061505 56 143 0.0 0.0 0.00 0.00 0.00 79 1009.1
20260509060006 56 143 0.0 0.0 0.00 0.00 0.00 79 1009.0
20260509054504 57 143 0.0 0.0 0.00 0.00 0.00 80 1009.1
20260509053003 57 143 0.0 0.0 0.00 0.00 0.00 79 1009.1
20260509051506 57 143 0.0 0.0 0.00 0.00 0.00 79 1009.0
20260509050104 57 143 0.0 0.0 0.00 0.00 0.00 78 1009.1
20260509044607 57 143 0.0 0.0 0.00 0.00 0.00 76 1009.0
20260509043100 57 143 0.0 0.0 0.00 0.00 0.00 76 1009.1
20260509041556 57 143 0.0 0.0 0.00 0.00 0.00 77 1009.1
20260509040106 58 143 0.0 0.0 0.00 0.00 0.00 77 1009.1
20260509034551 58 143 0.0 0.0 0.00 0.00 0.00 77 1009.3
20260509033110 58 143 0.0 0.0 0.00 0.00 0.00 76 1009.4
20260509031550 58 143 0.0 0.0 0.00 0.00 0.00 75 1009.5
20260509030048 58 143 0.0 0.0 0.00 0.00 0.00 75 1009.6
20260509024556 58 143 0.0 0.0 0.00 0.00 0.00 74 1009.9
20260509023046 58 143 0.0 0.0 0.00 0.00 0.00 72 1010.2
20260509021546 59 143 0.0 0.0 0.00 0.00 0.00 71 1010.1
20260509020052 59 143 0.0 0.0 0.00 0.00 0.00 68 1010.0
20260509014544 60 142 0.0 0.0 0.00 0.00 0.00 68 1009.9
20260509013044 61 142 0.0 0.0 0.00 0.00 0.00 66 1009.8
20260509011549 61 142 0.0 0.0 0.00 0.00 0.00 65 1009.9
20260509010043 63 142 0.0 0.0 0.00 0.00 0.00 62 1009.9
20260509004542 64 142 0.0 0.0 0.00 0.00 0.00 60 1009.8
20260509003043 66 144 0.0 2.0 0.00 0.00 0.00 57 1009.8
20260509001541 67 135 0.0 3.0 0.00 0.00 0.00 50 1009.7
20260509000040 68 170 0.0 4.0 0.00 0.00 0.00 49 1009.7
20260508234541 68 134 1.0 5.0 0.00 0.00 0.00 46 1009.9
20260508233042 69 141 0.0 2.0 0.00 0.00 0.00 46 1009.8
20260508231544 69 212 0.0 5.0 0.00 0.00 0.00 45 1009.9
20260508230042 69 257 0.0 7.0 0.00 0.00 0.00 44 1010.1
20260508224549 70 132 0.0 4.0 0.00 0.00 0.00 44 1010.1
20260508223038 71 83 0.0 6.0 0.00 0.00 0.00 42 1009.9
20260508221537 71 214 0.0 7.0 0.00 0.00 0.00 42 1009.8
20260508220046 72 110 0.0 5.0 0.00 0.00 0.00 41 1009.7
20260508214543 72 148 1.0 8.0 0.00 0.00 0.00 41 1009.7
20260508213038 72 87 0.0 3.0 0.00 0.00 0.00 42 1009.8
20260508211532 72 96 1.0 6.0 0.00 0.00 0.00 40 1010.1
20260508210035 72 142 1.0 5.0 0.00 0.00 0.00 43 1010.3
20260508204535 72 356 1.0 5.0 0.00 0.00 0.00 41 1010.3
20260508203031 72 231 0.0 8.0 0.00 0.00 0.00 42 1010.5
20260508201525 72 263 4.0 9.0 0.00 0.00 0.00 41 1011.0
20260508200024 72 169 0.0 9.0 0.00 0.00 0.00 41 1011.2
20260508194523 71 342 0.0 6.0 0.00 0.00 0.00 40 1011.4
20260508193019 71 269 0.0 3.0 0.00 0.00 0.00 40 1011.8
20260508191518 71 246 1.0 5.0 0.00 0.00 0.00 39 1011.9
20260508190018 71 133 2.0 14.0 0.00 0.00 0.00 40 1011.9
20260508184521 71 148 2.0 9.0 0.00 0.00 0.00 40 1011.7
20260508183013 70 173 0.0 8.0 0.00 0.00 0.00 42 1011.9
20260508181511 70 51 0.0 7.0 0.00 0.00 0.00 41 1012.2
20260508180009 70 13 0.0 6.0 0.00 0.00 0.00 42 1012.6
20260508174506 70 98 0.0 13.0 0.00 0.00 0.00 43 1012.8
20260508173004 70 103 2.0 7.0 0.00 0.00 0.00 41 1013.1
20260508171502 70 246 1.0 8.0 0.00 0.00 0.00 43 1013.5
20260508170101 69 266 1.0 7.0 0.00 0.00 0.00 43 1013.7
20260508164556 70 135 0.0 3.0 0.00 0.00 0.00 46 1014.1
20260508163105 69 137 0.0 6.0 0.00 0.00 0.00 46 1014.3
20260508161557 69 135 2.0 7.0 0.00 0.00 0.00 47 1014.5
20260508160048 68 224 1.0 6.0 0.00 0.00 0.00 46 1014.8
20260508154545 67 129 0.0 6.0 0.00 0.00 0.00 46 1015.0
20260508153054 66 117 2.0 7.0 0.00 0.00 0.00 48 1015.3
20260508151538 65 15 0.0 5.0 0.00 0.00 0.00 52 1015.5
20260508150035 63 117 0.0 2.0 0.00 0.00 0.00 53 1015.6
20260508144531 62 131 0.0 5.0 0.00 0.00 0.00 56 1015.8
20260508143036 60 204 0.0 3.0 0.00 0.00 0.00 61 1015.8
20260508141524 58 106 0.0 3.0 0.00 0.00 0.00 65 1015.8
20260508140017 57 258 0.0 2.0 0.00 0.00 0.00 66 1015.9
20260508134515 55 117 0.0 4.0 0.00 0.00 0.00 70 1016.0
20260508133008 52 141 0.0 3.0 0.00 0.00 0.00 78 1015.9
20260508131505 50 129 0.0 1.0 0.00 0.00 0.00 88 1015.9
20260508130059 48 113 0.0 0.0 0.00 0.00 0.00 92 1015.8
20260508124555 45 113 0.0 1.0 0.00 0.00 0.00 93 1015.8
20260508123052 43 116 0.0 1.0 0.00 0.00 0.00 93 1015.8
20260508121550 42 115 0.0 0.0 0.00 0.00 0.00 93 1015.8
20260508120058 40 116 0.0 0.0 0.00 0.00 0.00 93 1015.7
20260508114553 39 116 0.0 0.0 0.00 0.00 0.00 93 1015.5
20260508113049 39 115 0.0 0.0 0.00 0.00 0.00 93 1015.4
20260508111547 38 115 0.0 0.0 0.00 0.00 0.00 93 1015.4
20260508110048 38 115 0.0 0.0 0.00 0.00 0.00 93 1015.2
20260508104545 38 116 0.0 0.0 0.00 0.00 0.00 93 1015.2
20260508103048 39 115 0.0 0.0 0.00 0.00 0.00 93 1015.2
20260508101544 39 116 0.0 0.0 0.00 0.00 0.00 93 1015.1